GFSFLT1_sfc_temp_054.txt.gz
Temp
80 81 81 82 78 77 69 66 63 63 63 62 62 63 62 62 64 65 65 67 67 64 63 62 63 61 59 57 55 56 54 54
78 79 78 78 75 71 66 64 65 65 64 63 65 64 65 65 67 68 68 67 67 64 63 62 61 59 57 57 55 53 52 53
75 75 75 76 73 66 66 68 66 68 70 70 69 67 66 67 67 66 66 66 65 65 62 60 59 57 57 55 53 50 50 51
73 74 72 72 67 67 70 70 70 71 73 71 70 69 66 66 65 64 65 66 66 64 62 59 57 56 54 53 53 51 47 49
75 72 68 68 69 68 71 72 72 74 72 70 67 66 64 64 64 65 65 65 64 64 62 59 57 56 54 53 55 50 49 46
74 71 70 71 71 71 73 74 74 72 72 70 67 67 65 65 65 64 64 63 63 63 61 59 57 55 54 53 53 51 48 46
74 75 75 73 71 70 71 72 72 71 70 69 68 64 62 61 60 59 61 61 61 61 62 58 56 55 54 54 52 50 48 47
72 72 72 71 69 69 70 71 70 69 68 67 65 62 61 61 62 59 58 58 57 57 57 55 54 54 53 53 51 49 47 45
72 72 71 70 69 69 70 70 69 68 66 64 63 63 61 60 59 59 57 56 56 57 55 54 54 53 52 51 50 48 47 44
73 73 71 70 69 68 68 70 69 67 63 62 61 60 59 59 59 58 56 56 59 54 53 53 52 52 51 50 48 48 46 44
73 73 71 71 71 70 68 69 66 63 62 60 59 58 59 59 58 57 56 55 55 53 52 51 51 51 50 49 47 47 45 44
72 73 72 72 68 68 67 67 63 62 59 58 57 57 59 59 57 56 55 54 54 53 52 51 51 50 50 48 47 47 45 44
73 73 70 70 68 66 65 64 62 60 59 57 56 58 59 57 56 56 55 53 53 52 52 51 51 50 48 46 44 44 43 41
73 72 69 68 67 65 64 61 59 59 58 56 58 58 57 55 55 55 54 52 52 51 51 49 49 46 44 44 43 43 41 42
72 69 68 66 66 64 61 59 58 58 59 60 57 56 55 54 53 53 52 52 50 50 50 50 47 45 45 45 46 43 40 41
69 68 66 66 63 61 61 59 59 61 59 58 55 55 55 54 52 52 52 51 51 50 49 47 46 45 47 42 43 40 41 40
69 68 67 65 62 61 61 59 60 59 58 55 55 54 53 51 51 50 50 50 50 49 47 45 43 47 39 39 38 38 40 39
68 67 66 63 62 62 59 60 58 57 55 55 55 53 52 50 51 51 49 47 47 46 44 43 42 42 39 37 37 37 36 36
67 65 64 63 62 60 58 59 57 55 54 53 53 52 50 50 50 49 48 47 45 44 41 42 40 41 36 35 36 35 34 35

GFSFLT1_sfc_temp_057.txt.gz
Temp
72 72 73 73 70 66 64 61 60 59 59 57 57 57 57 57 57 61 61 61 61 59 58 58 57 55 53 52 51 51 49 48
71 71 70 70 64 63 61 60 60 60 58 57 57 56 56 57 59 61 61 61 61 58 56 55 55 54 52 52 50 49 47 46
69 68 67 66 62 61 61 61 61 61 61 60 59 58 58 58 59 59 60 60 60 60 56 55 54 52 51 50 48 46 46 47
66 67 61 61 60 61 62 62 62 63 63 63 60 59 58 57 57 56 59 60 60 58 56 54 53 51 49 48 48 47 44 45
68 63 60 61 61 62 64 64 63 64 64 62 60 57 57 56 56 57 58 60 59 59 57 55 54 52 51 49 51 47 45 43
64 63 63 62 62 61 63 63 64 64 66 62 60 57 58 60 61 60 59 60 60 59 57 54 53 51 49 48 48 47 45 43
66 64 64 62 61 61 61 62 65 63 62 60 58 56 55 54 54 57 56 56 55 54 55 52 51 50 49 48 47 46 45 43
62 62 61 61 60 60 61 62 61 61 60 58 56 55 55 54 54 55 55 53 53 52 51 49 48 49 48 48 46 45 45 42
62 62 61 60 61 61 61 61 61 60 58 56 56 55 53 56 57 55 53 52 52 50 49 49 48 48 47 46 44 43 43 41
63 62 62 61 60 61 60 60 60 59 56 55 54 54 56 56 56 55 54 51 54 49 48 47 47 47 46 45 43 43 42 41
63 63 62 63 63 61 60 63 61 57 54 53 55 56 57 56 55 54 52 49 50 48 47 47 46 46 46 43 41 42 40 39
61 62 64 65 65 65 59 59 60 56 53 53 55 56 57 57 55 51 50 49 49 48 48 47 47 45 43 42 41 41 40 39
62 62 65 65 64 62 59 58 55 52 55 55 55 56 56 55 53 50 48 48 48 48 48 47 47 44 43 41 40 40 38 37
62 63 63 63 61 60 57 55 54 55 55 55 55 54 54 51 48 48 48 48 47 47 48 47 46 43 42 41 41 40 39 38
64 64 63 61 60 56 55 52 52 55 56 55 53 52 51 49 49 49 48 48 48 47 47 46 44 42 42 42 42 39 38 38
62 60 57 55 54 53 53 52 53 56 55 54 50 49 48 48 47 47 48 48 48 47 46 44 43 43 44 40 40 40 37 36
60 58 58 56 55 54 54 52 54 52 51 50 50 49 48 47 47 47 47 47 46 45 43 42 41 44 40 39 37 35 37 36
59 59 58 57 57 56 52 51 51 49 51 50 48 49 47 47 49 48 46 45 43 41 41 41 39 39 39 37 36 33 35 35
57 56 54 53 53 51 51 51 50 50 49 50 50 49 48 48 46 45 44 42 41 39 39 39 37 39 38 36 36 32 31 32

GFSFLT1_sfc_temp_060.txt.gz
Temp
66 68 70 70 68 66 64 62 59 58 58 57 57 56 55 56 56 57 58 58 59 56 55 54 54 52 51 50 49 48 46 46
66 68 70 68 63 63 62 60 59 59 57 56 55 54 55 55 56 59 59 58 57 55 54 53 52 51 50 50 48 47 45 44
67 68 66 62 61 61 60 61 60 60 60 57 57 56 55 56 56 57 58 57 56 55 53 52 52 50 49 48 47 44 44 44
64 64 60 60 60 59 60 60 60 61 61 60 57 56 55 54 54 54 56 57 57 56 55 52 51 49 48 47 46 45 43 43
62 60 60 61 60 59 61 61 61 61 60 59 57 54 54 53 53 54 55 57 56 56 54 52 50 49 48 46 48 45 43 42
60 59 60 60 60 60 60 60 60 61 61 59 58 54 54 54 54 54 55 55 55 56 53 51 49 48 47 46 46 45 43 42
61 61 61 60 60 58 59 59 60 61 59 58 56 55 53 53 52 52 54 54 54 53 52 49 48 47 46 45 44 44 43 41
59 58 59 58 58 59 58 59 58 57 56 55 54 53 53 53 52 54 54 53 52 52 51 47 46 46 46 45 43 42 42 40
60 59 58 59 58 57 59 59 56 56 56 54 53 53 52 53 54 54 52 52 50 49 48 46 46 45 44 43 41 40 40 39
59 59 59 58 57 57 57 58 57 56 54 53 52 54 55 52 54 54 52 52 51 48 46 45 45 45 43 43 39 39 39 38
59 60 60 61 61 59 57 58 57 54 53 52 54 55 55 54 52 53 51 51 50 47 45 45 45 43 43 42 39 39 39 37
59 61 61 61 61 59 57 56 54 53 51 51 54 54 54 54 53 50 51 49 47 46 46 46 45 44 43 41 40 39 38 37
61 61 60 59 59 55 55 56 56 54 55 55 54 55 54 53 52 50 49 47 46 46 46 46 46 44 42 41 40 40 39 37
60 60 60 60 58 55 54 54 54 55 55 55 53 53 52 50 49 48 47 46 45 45 46 46 45 43 41 40 40 40 38 37
58 59 60 57 55 54 54 53 54 55 55 54 51 50 49 48 47 45 46 46 45 47 46 45 44 41 41 41 41 38 37 37
56 55 54 52 51 51 52 52 53 52 50 48 46 47 48 46 45 44 45 47 46 45 44 43 42 41 42 39 39 37 35 35
55 54 53 51 50 50 51 50 49 50 48 48 48 46 45 46 44 47 46 46 45 43 42 40 39 42 42 40 38 34 34 34
55 54 53 52 51 52 49 48 48 48 48 48 46 45 45 45 48 46 45 43 42 41 40 39 38 38 39 39 37 32 31 31
53 53 50 49 49 48 48 49 49 48 47 45 45 46 47 46 45 44 42 41 40 39 38 37 36 37 39 38 36 30 30 31

GFSFLT1_sfc_temp_063.txt.gz
Temp
63 64 66 65 63 63 62 60 58 57 57 56 55 55 55 55 55 56 57 56 56 54 53 53 53 51 49 48 48 46 45 45
63 64 63 63 61 61 60 59 58 58 56 55 54 53 53 54 55 57 57 56 56 54 52 52 51 50 49 49 46 46 44 43
61 61 61 60 59 60 58 60 58 58 59 56 56 54 54 54 55 55 56 55 55 54 52 51 50 48 48 47 46 43 43 42
62 62 60 58 58 58 59 59 59 59 58 58 54 54 54 53 52 52 54 55 55 54 52 50 49 48 46 45 44 44 42 42
64 63 58 58 60 59 59 59 59 59 58 57 56 53 52 52 52 52 53 55 55 54 52 50 48 47 46 46 46 43 42 41
62 63 61 60 59 58 58 59 59 60 59 58 55 52 52 51 52 52 52 52 53 53 51 48 47 46 46 45 44 43 41 40
60 61 60 60 59 58 58 59 59 59 58 57 55 53 52 51 50 50 49 49 50 51 52 48 47 49 46 44 42 42 41 40
57 57 59 60 59 58 58 59 57 58 57 55 54 53 52 52 50 49 48 48 50 51 50 49 49 45 44 44 42 40 39 38
58 58 58 59 59 58 58 57 55 55 54 53 52 52 50 50 51 49 50 51 49 48 48 49 47 45 43 41 39 39 38 37
58 58 58 58 57 57 56 55 54 53 52 52 52 54 54 53 53 52 48 49 50 48 48 45 44 43 42 40 38 38 38 38
58 57 57 57 58 57 55 56 55 53 53 56 55 54 54 54 52 50 50 49 49 48 46 45 44 42 41 42 39 38 38 36
57 58 58 59 58 56 56 56 54 52 52 53 54 53 53 52 51 50 48 48 48 47 45 44 43 43 42 40 39 39 38 36
58 58 58 57 56 56 56 55 54 53 53 52 51 51 50 48 48 47 49 45 47 45 44 44 44 43 41 39 38 39 37 36
56 56 57 57 56 52 50 50 49 54 54 53 50 51 47 49 49 47 45 46 45 44 44 43 43 42 41 39 39 38 38 36
56 56 55 53 51 50 50 51 53 53 52 52 50 49 49 47 45 46 45 45 44 44 43 43 42 42 40 40 40 38 36 36
54 53 51 49 49 50 52 52 53 52 52 50 48 47 47 44 45 43 43 46 44 43 42 42 41 41 41 39 38 36 35 34
53 53 50 49 49 50 50 50 49 50 47 45 45 44 45 45 45 44 44 43 42 41 40 40 39 41 40 40 38 34 34 33
51 51 50 49 49 50 48 46 47 46 44 44 45 46 46 45 46 45 42 40 40 39 38 38 37 36 39 40 39 33 32 31
49 49 48 47 46 46 45 46 45 44 43 44 45 44 45 45 44 42 40 39 38 37 36 36 35 36 38 39 38 32 30 30

GFSFLT1_sfc_temp_066.txt.gz
Temp
63 62 63 62 62 61 60 58 57 56 56 55 55 55 55 55 55 55 55 55 55 53 54 51 52 50 48 48 47 45 45 45
62 61 61 60 59 59 58 57 56 57 56 54 53 53 53 53 57 57 57 56 54 53 51 50 50 49 48 48 46 45 44 43
59 59 58 59 59 59 58 58 57 57 59 54 55 53 53 54 56 56 55 55 54 53 51 50 49 47 47 46 45 43 43 42
58 59 58 58 59 58 59 58 57 58 57 56 54 54 53 52 51 52 53 54 53 52 51 49 47 47 46 45 44 44 42 42
59 59 58 58 59 58 59 58 58 57 57 56 56 54 53 53 51 51 52 53 52 52 50 48 47 46 47 45 48 43 42 41
59 60 60 59 57 57 57 57 58 58 58 57 57 56 52 51 50 51 50 50 51 50 49 48 50 46 47 45 43 42 41 40
60 58 57 56 56 55 56 57 58 58 57 57 57 54 51 49 49 48 48 48 48 49 52 50 46 49 48 44 42 42 40 39
56 55 57 56 57 56 57 58 57 58 57 58 57 53 51 51 49 47 47 47 47 48 50 49 49 48 46 42 41 40 39 38
57 57 57 57 58 58 58 58 58 57 57 57 54 52 51 50 49 48 48 48 49 49 48 48 47 47 43 43 40 39 38 38
57 57 57 57 57 58 58 59 57 56 55 52 51 50 50 50 51 52 50 47 50 48 46 45 46 46 44 40 39 39 38 37
56 56 57 58 58 60 59 57 55 52 51 51 50 50 52 54 51 49 49 48 48 46 45 46 46 44 42 39 38 38 38 37
56 57 57 57 58 56 55 53 52 50 50 50 51 52 50 50 49 49 49 48 46 46 46 45 45 41 42 40 39 39 38 37
55 56 56 55 54 54 54 53 50 48 49 49 48 49 50 49 48 48 47 46 46 44 44 45 44 42 41 40 39 40 37 37
53 54 54 54 53 52 51 48 47 49 50 50 50 50 49 46 47 46 46 43 44 45 45 45 43 42 41 39 38 38 37 37
52 52 52 52 50 49 48 49 50 51 51 52 49 49 48 47 46 45 43 45 45 45 44 43 42 41 40 40 39 37 36 36
52 50 49 47 47 48 49 50 50 52 51 50 47 46 46 46 45 45 45 46 45 44 42 41 40 40 41 38 37 36 34 34
50 50 49 48 47 48 49 48 48 50 48 45 46 46 46 45 43 44 45 45 43 41 39 39 39 40 40 39 38 34 34 34
49 48 47 47 48 48 46 46 48 47 46 46 46 45 45 43 45 45 43 42 41 39 38 37 36 36 38 39 39 34 33 32
46 45 45 45 44 44 44 45 44 45 46 45 45 44 44 44 44 43 41 40 39 37 36 35 34 35 38 38 38 34 32 31

GFSFLT1_sfc_temp_069.txt.gz
Temp
66 67 69 69 69 69 68 66 65 65 64 64 64 64 64 64 64 65 66 64 64 63 65 63 65 62 61 62 61 61 62 62
67 68 68 67 68 68 67 65 64 64 63 62 62 62 62 62 64 65 62 63 61 64 64 62 62 62 62 61 61 60 60 60
65 65 67 67 69 67 66 66 64 65 68 67 66 64 63 64 65 63 62 60 63 64 62 62 62 61 60 60 60 59 59 58
65 65 65 65 66 65 66 67 66 66 66 64 62 61 61 61 62 60 62 62 64 62 62 62 61 62 61 59 58 58 57 57
67 66 66 65 66 67 68 66 65 65 64 63 62 62 58 61 60 59 62 63 62 62 61 61 61 60 59 59 58 57 57 56
65 65 67 67 66 64 65 65 65 64 64 64 62 60 60 60 58 60 60 61 62 61 61 60 59 58 56 56 56 55 58 57
68 68 67 66 64 63 63 64 64 63 63 63 62 60 58 59 60 59 60 61 61 60 60 58 56 56 53 53 54 53 55 55
66 65 64 64 62 62 63 64 62 63 62 62 62 60 59 60 60 60 59 59 59 58 58 55 57 49 48 50 53 53 53 53
66 67 65 64 62 62 63 62 63 63 62 62 62 60 57 61 62 62 61 60 59 57 56 52 48 47 49 50 51 54 53 51
66 66 65 65 63 62 63 63 62 62 61 62 61 58 59 61 61 61 59 58 57 56 54 47 46 48 52 53 54 53 51 51
65 66 65 65 65 65 64 64 64 62 62 62 61 60 62 61 59 57 56 56 56 54 47 46 48 53 53 52 52 52 50 50
63 64 65 66 66 66 64 64 62 61 62 62 60 60 60 58 57 56 56 53 49 47 47 50 53 53 53 51 51 51 49 49
64 64 63 64 64 64 62 61 59 62 60 59 58 56 56 56 55 54 54 48 50 48 51 54 53 53 53 51 50 50 49 48
63 62 62 62 62 60 61 59 57 58 58 55 54 54 53 53 52 50 48 49 52 53 53 51 52 52 51 51 50 49 48 48
63 62 62 62 61 60 58 55 56 55 53 53 53 53 52 48 49 49 48 47 51 51 51 52 51 51 50 50 50 49 47 47
60 62 60 58 56 56 55 54 54 55 54 53 50 47 44 44 45 48 46 49 52 52 51 50 50 49 50 50 49 48 47 46
59 58 56 54 53 54 53 54 53 53 51 47 45 43 44 46 46 44 47 51 50 49 49 48 48 48 42 39 42 47 47 46
56 55 55 53 53 53 53 53 54 52 49 45 46 46 48 45 45 50 49 47 49 48 47 47 47 47 39 39 38 46 46 46
51 52 52 53 54 53 52 53 50 47 46 46 46 46 45 45 50 48 48 49 47 48 47 46 45 46 38 38 37 44 45 45

GFSFLT1_sfc_temp_072.txt.gz
Temp
68 71 74 75 74 75 74 73 71 73 72 72 74 74 71 70 72 73 71 73 72 73 73 72 74 72 71 70 69 71 72 71
74 74 74 75 74 74 74 73 73 73 72 73 73 69 67 68 70 71 70 66 71 73 74 71 72 71 70 68 69 67 69 70
73 74 73 73 73 73 74 74 73 74 76 76 75 73 68 69 74 68 70 69 70 71 71 71 71 70 68 67 67 68 69 68
71 73 73 73 73 73 75 76 77 76 77 77 75 74 71 70 70 65 66 66 69 72 71 71 69 70 68 67 66 65 66 66
75 74 75 74 75 77 78 78 77 76 76 75 71 72 70 71 68 67 66 66 70 71 71 70 69 70 68 67 67 66 63 63
78 77 77 78 77 77 77 77 76 75 74 73 72 72 71 67 59 59 65 67 70 71 70 69 68 69 67 64 63 62 65 62
79 80 79 78 76 74 73 74 73 74 72 71 71 70 66 63 58 58 65 69 69 68 70 68 68 65 64 62 57 55 59 62
79 79 78 77 75 73 72 73 73 74 71 70 67 68 66 65 62 62 68 67 66 67 68 66 65 64 53 49 51 61 61 60
79 80 79 78 74 72 73 73 73 73 71 68 68 69 68 67 64 67 68 68 68 68 66 66 64 49 48 50 57 61 61 59
79 80 80 77 75 73 73 74 75 72 68 68 67 67 66 66 65 69 69 70 69 65 64 60 51 48 49 54 59 60 59 58
78 79 79 79 78 77 74 77 76 74 71 68 66 68 68 64 66 68 68 68 65 62 57 51 47 48 55 59 60 60 58 58
76 77 79 78 78 77 75 76 77 75 72 68 65 66 64 63 64 64 64 62 59 55 50 49 56 58 60 59 59 59 57 57
77 77 77 77 76 76 76 75 75 75 72 67 64 61 59 56 56 57 57 53 52 50 51 56 58 61 60 59 58 59 57 56
76 75 74 75 75 74 75 73 72 71 67 62 57 55 55 54 52 52 50 50 52 51 55 58 59 59 59 59 58 57 56 56
77 76 75 74 73 73 72 70 69 65 62 59 56 54 53 51 49 47 46 47 48 50 53 57 57 59 59 58 57 56 56 56
75 76 75 73 71 69 68 64 61 59 58 55 54 53 50 46 45 45 49 52 49 50 57 58 58 57 58 57 56 55 54 54
73 73 72 68 66 66 61 58 58 59 58 55 54 49 46 44 43 48 47 47 52 58 57 57 56 57 44 41 43 52 53 53
67 68 67 66 64 63 59 58 59 57 55 52 50 47 46 49 50 50 49 53 57 56 55 55 54 55 42 40 39 50 51 52
63 64 64 64 65 64 62 61 59 56 54 52 52 50 47 49 54 52 52 56 54 55 54 54 53 54 42 39 38 48 50 51

GFSFLT1_sfc_temp_075.txt.gz
Temp
67 69 70 72 71 70 69 67 67 70 71 73 74 74 72 72 71 73 73 76 75 77 77 74 75 74 73 73 71 72 73 72
72 70 72 76 74 74 74 73 70 71 71 73 74 74 70 69 71 74 74 75 75 75 76 73 75 73 72 70 70 68 69 71
71 72 72 74 74 75 75 76 74 74 78 77 77 77 72 73 75 72 73 69 69 75 75 73 73 72 69 69 69 68 70 69
74 74 75 75 74 74 76 75 75 75 79 80 79 76 74 69 70 71 72 72 74 75 74 73 72 72 69 68 68 68 67 68
75 75 74 75 76 77 77 78 75 75 75 78 76 71 70 72 71 71 66 65 69 72 74 73 71 71 70 68 69 68 66 64
77 77 77 78 77 77 77 79 80 79 77 75 77 75 75 73 69 69 64 63 67 72 73 71 70 70 69 68 65 63 65 58
83 82 81 80 80 78 79 79 80 80 74 74 75 74 75 71 67 64 64 62 66 71 72 70 70 69 67 65 62 61 55 59
82 83 81 81 80 79 79 79 79 79 75 72 74 74 73 68 66 65 64 64 66 69 70 68 68 67 65 60 56 53 56 59
83 84 83 83 81 80 78 78 77 79 76 73 73 74 72 70 69 68 65 65 69 70 68 68 67 65 60 57 55 53 56 58
85 85 84 83 82 80 78 78 78 78 77 75 72 71 70 70 70 69 66 65 69 67 68 66 64 60 53 51 50 55 60 60
84 86 85 85 84 82 78 78 79 79 79 75 70 70 70 68 68 66 63 62 65 66 64 62 55 49 48 49 55 61 61 60
83 84 86 86 85 82 79 78 80 80 79 75 68 66 69 65 64 60 59 61 63 61 53 50 49 50 51 55 60 60 60 59
83 83 84 84 83 83 81 79 80 81 79 74 66 65 59 57 56 56 56 54 53 50 50 52 52 54 57 57 58 60 59 58
83 83 82 82 81 81 81 79 79 81 75 67 60 56 55 55 54 53 52 50 50 52 51 49 51 54 58 61 60 59 59 58
83 82 81 81 81 79 79 78 78 75 63 62 57 56 54 52 52 52 51 49 48 47 48 49 50 57 60 61 60 59 58 58
82 82 82 80 78 77 78 75 71 69 63 59 54 53 52 54 52 50 48 47 47 52 50 50 56 60 61 59 59 57 56 55
79 80 81 78 76 74 71 67 64 63 57 53 53 52 51 48 46 47 48 50 50 50 52 59 58 59 43 45 45 52 53 53
74 76 77 75 73 65 60 59 59 58 55 52 51 50 48 47 48 48 49 52 53 55 58 57 56 57 44 42 40 50 51 51
71 73 72 72 66 62 59 58 55 53 52 51 51 51 51 53 54 55 55 56 56 57 56 56 55 56 43 41 39 49 50 50

GFSFLT1_sfc_temp_078.txt.gz
Temp
59 60 61 60 60 60 59 60 60 60 59 62 66 66 67 67 66 66 68 69 69 67 67 65 66 64 63 62 61 61 60 59
63 63 65 63 61 61 62 62 62 61 61 64 66 66 64 64 66 68 68 69 69 68 67 65 64 63 62 62 60 59 58 59
65 67 67 65 63 63 64 65 64 65 65 70 70 69 67 65 67 67 68 68 68 68 66 65 64 62 60 60 59 58 58 58
66 67 67 68 66 66 68 68 68 69 69 71 71 69 66 65 64 66 68 65 64 64 67 65 63 62 59 59 59 59 55 57
69 68 68 69 69 70 71 72 70 71 71 71 69 68 65 66 65 67 67 65 65 68 69 65 63 62 60 59 62 58 57 53
70 71 71 72 71 70 71 73 72 72 71 69 69 66 66 66 66 65 62 62 62 62 64 65 63 62 61 60 58 57 56 54
74 74 74 73 72 70 71 73 73 72 71 70 68 68 67 66 64 62 61 61 61 62 65 64 62 62 61 58 57 55 53 53
73 74 74 73 72 71 72 73 73 74 70 71 69 69 68 67 65 62 60 59 60 61 63 61 61 62 58 56 53 52 53 51
77 75 74 75 73 72 72 73 73 75 71 70 70 70 70 68 66 62 62 62 61 62 62 62 61 59 54 53 52 52 52 51
80 81 77 75 75 74 72 74 75 75 73 70 69 70 69 67 63 63 64 63 63 62 62 60 57 55 53 52 49 50 49 49
80 81 80 78 77 77 74 75 76 75 75 72 70 68 69 67 64 64 63 61 61 60 59 55 52 51 49 49 48 49 48 51
79 80 82 81 79 77 76 75 76 75 75 73 70 68 66 64 63 61 59 57 55 51 51 50 49 49 49 47 48 49 52 53
80 80 81 81 80 78 76 74 74 75 75 73 67 64 63 61 57 56 54 52 52 50 50 50 50 51 51 49 49 52 52 52
80 79 79 79 79 78 76 74 74 76 74 66 63 59 58 56 55 54 53 51 51 51 51 50 50 49 49 49 52 52 53 52
80 79 78 78 77 77 77 73 71 66 66 61 57 56 55 53 52 51 51 51 51 50 50 49 49 49 51 53 55 53 51 51
79 79 77 77 76 75 75 66 63 62 59 56 53 51 51 51 50 50 50 50 49 48 48 48 49 51 54 52 53 49 47 47
78 79 78 76 74 72 65 62 59 58 54 51 51 51 50 50 49 48 47 47 47 48 49 49 49 53 41 44 46 46 47 46
75 75 76 73 65 62 58 57 56 54 51 51 50 49 47 46 47 48 47 46 47 47 48 49 51 51 42 42 42 45 44 43
72 73 70 64 61 58 57 57 54 51 50 49 49 48 47 47 48 48 47 49 49 49 50 52 50 50 42 41 39 42 42 42

GFSFLT1_sfc_temp_081.txt.gz
Temp
58 58 59 59 59 60 59 60 59 57 57 59 62 61 62 62 61 63 65 65 66 63 62 61 61 61 59 58 58 56 56 55
59 59 59 59 59 58 58 56 56 56 55 57 60 61 60 61 62 65 65 65 66 62 62 60 61 59 58 58 55 55 54 54
57 57 59 58 56 57 58 57 56 58 57 60 61 63 62 63 63 63 64 64 63 62 62 61 61 59 57 56 56 54 53 53
56 58 57 56 56 56 59 59 58 60 61 62 63 61 60 61 61 62 63 63 62 63 63 62 60 57 56 55 55 55 52 52
60 60 58 57 57 60 62 63 61 61 63 63 63 63 61 61 60 61 61 61 61 62 63 63 61 59 58 56 58 54 53 51
62 62 62 61 61 61 63 64 64 64 65 63 64 60 63 60 60 60 59 59 60 61 61 60 61 58 57 57 55 54 53 50
63 65 65 64 64 63 65 66 66 66 66 66 63 64 62 62 60 59 58 57 57 59 60 60 60 59 58 58 54 52 51 51
63 63 64 65 65 65 66 66 66 67 66 66 65 63 64 62 61 60 57 57 56 58 59 58 60 59 56 56 54 52 51 50
65 65 66 66 67 66 66 67 67 68 67 66 66 63 65 63 63 61 60 59 58 57 58 57 58 57 56 54 52 51 51 49
68 68 68 69 68 67 67 68 68 69 66 67 66 65 63 63 62 61 59 59 58 57 59 58 55 54 53 51 49 49 49 49
70 70 69 69 69 71 69 69 70 70 70 67 67 65 64 61 60 60 59 59 59 57 55 53 51 50 49 48 47 48 49 48
68 71 72 71 70 69 70 67 69 69 70 67 66 64 62 60 60 59 59 58 56 54 51 49 50 51 49 48 48 48 48 47
69 70 69 72 69 70 70 68 68 70 70 65 65 63 62 60 61 59 56 53 52 51 51 52 51 49 49 49 48 49 48 48
68 69 70 70 70 69 70 68 68 69 64 65 62 61 60 58 56 55 54 52 51 52 51 50 50 51 50 49 49 49 49 50
67 66 68 70 69 69 66 66 67 66 66 60 57 56 56 55 53 52 52 52 50 51 51 51 50 50 50 50 50 49 48 47
68 67 66 67 66 64 66 61 59 58 57 56 54 53 53 52 51 51 51 51 50 50 49 49 49 49 50 49 51 47 44 44
69 69 68 66 63 59 58 56 54 54 52 51 51 51 51 50 50 49 49 48 48 49 49 49 47 52 46 44 44 42 44 43
67 65 63 60 57 55 52 51 53 51 50 50 50 49 48 47 47 47 47 47 47 47 48 48 47 47 41 42 41 42 41 40
63 58 56 54 53 52 51 50 50 50 49 49 48 47 46 47 47 47 46 47 47 47 47 47 46 45 40 39 40 39 38 38

GFSFLT1_sfc_temp_084.txt.gz
Temp
57 58 59 58 58 58 57 58 58 58 58 58 58 58 61 61 61 62 63 62 62 60 59 59 58 58 57 56 56 54 53 53
58 58 58 58 58 58 58 58 57 57 58 58 58 59 60 59 60 62 61 61 62 61 60 58 59 59 57 57 54 54 51 52
56 54 57 58 58 58 59 58 56 57 59 62 62 63 57 58 60 60 62 63 63 62 61 60 61 59 56 55 54 52 52 51
54 55 54 54 56 55 56 57 56 57 58 57 57 57 57 57 58 58 60 63 62 63 61 60 60 60 57 55 54 54 51 50
55 55 56 53 54 55 57 57 57 58 58 58 57 59 58 58 58 60 59 61 61 62 62 61 60 57 55 56 57 53 52 50
54 56 58 56 56 55 56 58 58 59 58 58 58 57 58 58 58 58 59 59 60 61 60 59 57 57 56 56 54 53 52 50
57 59 59 57 58 57 57 58 59 59 59 60 59 59 59 59 60 59 59 59 59 59 61 59 59 57 56 59 57 52 51 50
58 58 58 58 57 57 58 59 59 61 61 61 61 61 60 60 60 60 59 58 57 58 59 57 57 57 56 58 56 53 52 51
59 60 60 60 60 59 60 60 61 62 62 62 63 63 62 63 62 61 60 60 60 61 59 57 56 56 56 54 51 50 49 48
61 62 62 62 61 61 60 62 63 64 63 63 63 63 62 63 61 61 61 61 61 57 58 56 54 54 52 51 49 48 48 47
63 63 63 64 64 63 62 63 64 65 65 65 65 64 63 63 61 60 60 59 58 56 56 54 51 50 50 50 49 48 49 47
65 65 65 66 65 64 63 63 64 65 67 66 65 65 63 62 61 60 60 58 57 56 54 52 51 51 51 51 50 48 48 48
68 67 67 67 66 65 65 63 64 65 66 67 64 63 62 61 60 59 57 56 56 54 53 52 52 52 51 50 48 49 48 48
65 67 67 67 67 66 66 66 65 66 66 64 62 61 60 59 59 58 57 55 53 53 52 52 51 50 50 50 50 49 48 48
63 62 65 68 68 67 66 66 66 65 65 63 62 60 60 59 57 58 56 54 52 52 53 52 51 51 51 50 49 48 48 48
64 63 62 63 63 65 66 65 64 64 63 58 58 56 57 56 55 54 53 52 52 52 51 51 51 51 51 49 49 47 46 44
65 65 63 62 61 60 57 55 55 58 57 54 52 51 52 52 51 50 50 50 50 50 49 49 48 50 42 43 45 44 44 43
63 63 61 59 56 56 54 53 53 53 51 51 50 50 49 48 49 48 48 48 48 48 48 48 47 47 41 41 40 42 41 39
58 54 51 50 51 52 52 52 51 51 50 49 49 48 47 47 47 47 47 47 47 47 46 46 46 44 39 39 38 37 36 38

GFSFLT1_sfc_temp_087.txt.gz
Temp
57 57 58 58 57 57 57 57 58 58 58 57 57 58 59 60 61 61 62 63 62 59 58 57 57 56 55 55 54 52 52 51
58 58 57 57 57 57 57 56 57 58 57 58 58 56 57 58 60 62 62 62 61 59 58 57 56 57 56 55 53 52 50 50
57 57 56 57 56 57 57 57 57 58 59 62 61 60 59 59 60 61 62 61 60 60 59 57 57 56 55 54 54 51 51 50
56 56 56 57 56 57 58 57 57 59 61 62 60 59 57 57 59 59 60 61 61 61 60 59 58 58 56 54 53 54 50 48
56 55 55 55 57 56 56 56 56 55 56 57 57 58 58 61 56 59 57 59 60 61 61 59 58 56 54 55 55 52 52 50
53 53 54 54 56 54 54 55 56 57 55 55 55 55 55 55 56 57 57 58 61 62 61 59 58 57 57 55 53 54 55 53
54 54 55 53 53 53 53 54 55 56 56 55 54 55 55 55 56 55 56 57 58 59 59 58 59 57 55 54 54 55 55 53
53 53 53 54 52 53 54 55 55 57 56 57 57 56 56 57 58 58 57 57 56 57 57 56 57 57 55 55 55 55 53 51
55 55 55 55 55 54 55 55 56 57 57 57 58 58 59 59 59 59 59 59 60 59 58 59 57 55 54 53 52 51 51 49
57 58 57 56 57 56 55 57 57 58 58 58 58 58 59 60 59 60 60 61 61 60 58 58 56 55 54 52 50 50 50 49
59 59 59 59 59 58 57 58 59 60 60 60 60 60 60 61 61 60 60 61 60 58 56 56 54 53 52 51 50 50 50 49
60 61 62 62 60 60 58 58 59 60 62 62 61 61 61 61 61 61 60 60 57 56 56 55 53 52 51 52 51 50 50 48
62 62 62 62 61 61 60 59 59 61 63 63 62 62 62 61 60 61 59 57 57 56 55 54 52 52 52 51 50 50 50 48
62 62 62 62 62 61 62 61 61 61 62 62 62 61 61 60 60 58 57 57 56 55 54 54 52 52 51 52 51 50 49 49
61 60 63 63 64 63 62 62 62 62 62 61 61 61 60 61 60 57 57 56 57 55 54 54 53 52 52 51 51 49 49 49
60 61 62 63 62 63 64 63 63 62 61 61 61 61 59 57 57 57 58 58 57 55 54 53 53 52 51 50 50 49 48 45
61 61 61 60 60 61 61 61 61 60 60 59 54 54 55 55 55 55 52 52 52 53 52 51 50 51 43 43 46 46 45 42
62 60 62 62 57 55 54 52 53 54 53 52 51 52 50 50 51 51 50 50 50 50 50 49 49 48 44 42 40 43 41 39
58 55 52 51 53 52 52 52 52 51 51 50 50 50 49 49 49 49 48 48 48 48 47 48 46 45 40 39 37 38 37 38

GFSFLT1_sfc_temp_090.txt.gz
Temp
57 57 58 57 57 57 57 58 58 58 59 59 58 59 60 61 61 61 62 61 61 59 57 58 58 56 54 54 53 52 52 52
58 57 57 57 56 56 56 57 57 59 58 58 57 58 57 57 62 62 62 62 62 60 58 57 56 57 56 54 52 53 51 51
56 56 56 56 56 57 57 57 57 60 59 59 57 58 58 58 59 61 61 61 62 61 60 57 57 55 54 53 53 51 51 50
56 55 55 56 55 56 57 57 57 58 59 58 58 58 57 58 58 58 60 61 60 61 59 58 56 56 55 53 52 53 50 48
54 57 55 55 56 58 58 58 57 59 59 58 58 59 58 62 58 59 59 60 59 59 59 58 57 56 54 54 53 53 52 50
52 57 57 57 57 57 58 57 58 59 58 58 57 57 59 56 57 58 57 58 59 59 59 58 56 58 57 55 54 52 52 52
52 55 57 57 58 56 54 56 55 55 55 54 55 55 53 54 54 54 54 55 56 57 59 59 59 57 56 55 54 53 53 52
51 51 52 54 55 56 55 55 54 55 54 54 54 54 54 56 56 57 54 55 55 56 56 56 56 56 56 55 54 54 53 52
52 52 52 53 54 54 54 54 53 54 54 54 55 55 55 56 56 57 57 58 58 57 56 57 57 57 56 55 55 54 53 52
54 54 54 54 53 53 53 53 54 55 55 55 54 54 55 56 55 55 57 56 58 56 56 57 57 57 56 54 54 52 51 51
55 55 55 56 56 55 54 55 55 56 56 56 56 55 55 56 55 55 57 57 56 57 56 57 56 54 53 53 52 52 51 51
56 57 58 58 57 56 55 55 56 56 57 56 56 56 56 56 56 57 57 57 58 57 58 57 55 53 52 52 51 51 51 50
56 56 57 58 57 56 56 56 56 58 59 60 58 57 57 57 57 58 58 58 58 58 57 56 56 54 52 52 52 52 50 50
55 56 57 58 58 58 57 57 57 58 59 59 59 58 58 57 58 59 59 59 58 57 57 57 57 55 54 53 54 53 51 52
55 55 57 59 59 59 59 59 59 58 58 58 57 58 58 59 59 59 59 58 59 57 56 56 56 55 54 53 52 52 51 51
57 55 57 58 59 59 60 60 59 59 58 57 58 58 58 56 57 57 57 58 58 58 57 56 54 54 53 52 51 51 49 48
61 59 58 57 59 59 59 59 59 58 58 57 58 57 56 55 56 56 57 57 56 57 54 53 52 52 46 44 48 49 48 45
59 60 59 57 55 55 53 53 54 55 56 54 52 53 53 54 54 54 54 54 53 52 52 52 52 51 43 43 42 46 45 41
59 56 51 50 52 52 52 53 52 52 51 51 51 51 51 51 51 51 50 49 49 48 47 47 45 42 39 39 39 39 37 37

GFSFLT1_sfc_temp_096.txt.gz
Temp
72 71 68 65 64 62 61 64 62 61 61 61 61 62 63 63 63 64 64 65 69 72 73 73 74 74 73 74 73 74 74 74
73 70 68 62 63 62 59 60 61 61 60 59 59 59 61 61 62 62 63 66 69 71 73 72 74 73 73 72 72 70 71 71
70 68 67 63 63 63 60 59 61 61 61 59 60 61 60 61 61 62 63 65 70 70 72 71 73 73 71 70 70 69 68 67
70 66 62 62 61 64 63 63 59 61 61 59 58 59 60 60 60 61 62 64 69 70 73 72 73 73 70 69 68 68 66 64
73 70 65 60 62 67 66 65 61 62 62 62 59 59 58 62 62 64 63 63 64 68 72 72 71 72 70 69 69 69 69 65
73 72 69 63 63 63 64 66 60 61 63 62 60 60 61 60 62 68 65 64 65 64 65 65 68 70 69 69 68 68 70 69
75 75 73 70 65 65 63 64 62 61 65 66 63 64 60 59 60 62 67 65 69 67 66 65 67 70 70 70 70 68 67 67
73 73 72 71 66 65 64 64 61 64 66 65 63 65 65 62 63 63 69 67 64 64 66 64 67 70 72 71 70 69 69 66
74 74 73 71 68 65 64 64 63 62 61 62 66 69 65 67 69 70 68 69 70 71 70 70 67 67 70 70 70 70 70 68
75 75 74 73 69 67 65 66 64 64 64 64 64 68 67 68 70 70 71 71 72 71 71 71 72 72 71 71 70 70 70 68
76 76 74 74 72 70 67 69 68 68 67 67 67 68 69 70 70 70 70 72 72 72 71 71 71 71 71 70 70 71 69 69
76 77 76 74 72 71 65 65 68 69 70 69 68 68 69 69 69 70 70 70 71 70 70 70 70 71 71 70 70 70 68 68
77 76 76 74 72 71 66 61 64 67 69 70 69 69 69 68 68 69 70 70 70 70 70 70 71 72 72 71 68 68 65 65
77 76 75 74 73 72 71 68 66 69 70 69 69 68 68 68 67 67 69 69 69 70 70 69 70 70 70 70 67 62 60 61
76 75 76 76 75 74 73 72 71 71 71 70 68 68 68 68 68 68 68 68 68 69 69 70 69 70 71 70 66 63 65 65
77 76 77 77 76 75 74 74 72 72 71 70 69 69 69 69 68 67 68 68 68 69 70 70 70 70 69 68 64 61 58 57
82 79 78 77 76 75 74 74 72 72 71 70 71 70 70 69 68 68 68 69 70 70 70 69 67 62 49 46 50 56 53 51
79 80 78 77 76 74 74 74 73 70 70 71 70 70 69 69 69 68 67 65 65 63 61 58 48 43 39 43 41 46 43 40
79 79 75 74 77 76 75 74 72 69 70 70 70 69 68 69 68 66 60 53 50 47 44 42 39 38 37 38 38 38 36 35

GFSFLT1_sfc_temp_099.txt.gz
Temp
81 80 78 72 70 67 65 62 66 64 63 64 63 63 64 65 65 64 65 65 65 67 68 69 78 77 76 76 73 76 76 76
83 79 76 72 66 66 62 64 63 63 61 62 61 60 62 63 65 64 64 64 66 67 71 72 74 75 71 69 74 73 74 75
79 76 74 69 66 66 60 62 63 63 63 61 60 60 62 63 63 63 63 63 64 64 67 70 71 71 69 71 72 71 73 73
78 75 73 71 66 66 65 63 64 62 61 61 60 60 60 60 60 61 61 62 63 65 67 69 70 71 70 70 71 71 68 69
82 77 73 71 68 69 70 66 65 62 62 61 60 58 57 59 59 60 61 62 64 66 68 69 69 73 69 69 71 70 71 66
81 79 76 74 71 67 66 66 65 64 62 64 60 59 59 59 60 59 60 61 64 67 70 71 71 71 72 71 69 68 69 69
83 81 79 74 69 67 66 64 64 63 62 63 62 60 60 59 59 59 59 60 61 63 67 69 70 71 69 68 68 68 69 70
81 79 77 74 69 66 67 65 62 63 63 62 62 61 61 60 62 62 62 62 61 61 62 63 66 69 70 69 66 67 68 67
81 80 78 77 72 70 67 66 64 64 64 65 66 66 66 62 65 65 63 65 68 64 64 65 66 67 66 68 69 68 68 66
81 81 79 78 74 72 70 70 69 67 66 68 68 68 68 67 64 65 67 69 70 68 68 68 69 67 68 66 69 69 68 68
82 82 79 79 76 74 71 73 72 71 68 67 68 70 70 70 70 69 69 70 71 71 69 69 70 70 70 70 70 70 68 67
82 83 82 80 78 76 72 73 73 72 71 69 68 70 71 71 71 71 71 72 72 72 71 71 71 71 71 71 70 70 69 69
84 83 82 80 78 76 73 73 74 74 73 71 70 70 70 70 70 71 72 72 72 72 72 72 72 72 72 71 70 71 70 69
82 83 81 80 78 76 76 73 74 75 75 73 72 70 70 70 70 71 71 71 71 72 72 71 71 71 72 72 72 71 71 70
82 82 82 81 79 77 76 73 73 73 73 73 72 71 71 72 72 72 71 72 71 71 72 72 72 72 73 73 73 72 70 70
82 82 81 82 80 79 78 76 73 73 73 72 72 72 72 72 71 71 71 70 71 72 71 71 71 72 72 71 70 66 64 62
84 84 83 82 81 80 79 78 75 74 73 72 73 72 72 71 71 70 70 70 71 70 70 70 68 55 39 41 48 53 47 45
83 84 84 83 82 81 80 79 78 75 75 75 74 73 72 71 71 70 69 67 66 53 48 45 41 41 39 39 39 40 38 37
82 83 83 84 85 82 80 80 77 75 74 75 75 73 73 72 69 57 49 46 43 41 39 38 37 37 36 36 36 35 34 33

GFSFLT1_sfc_temp_102.txt.gz
Temp
81 80 78 73 70 67 65 65 66 66 63 64 64 65 65 66 66 65 64 64 64 64 66 67 66 67 68 69 67 66 64 64
80 78 75 71 67 65 64 64 64 63 61 61 61 61 62 64 65 65 64 64 64 63 66 65 66 67 64 67 65 64 63 65
77 75 73 67 65 65 64 64 63 64 63 62 61 61 62 63 64 64 65 63 64 63 65 64 66 65 65 65 64 62 63 64
75 73 71 66 64 64 64 65 63 63 64 62 60 61 61 61 62 62 64 64 64 63 64 64 64 65 63 63 63 63 61 61
77 74 71 66 64 65 67 64 62 63 64 63 60 58 58 59 62 62 61 63 62 62 62 63 63 64 63 63 65 63 62 58
77 75 73 71 66 64 66 65 62 63 62 63 60 58 58 59 59 59 60 60 61 61 61 63 64 64 63 62 62 62 62 61
80 77 75 72 67 65 64 64 63 63 62 63 61 59 58 58 58 58 58 58 59 60 62 61 62 62 62 62 63 62 61 61
78 76 73 71 65 64 63 63 61 62 61 62 61 60 60 59 59 58 58 58 58 59 61 60 60 62 63 62 62 61 61 60
78 76 73 70 66 64 63 62 61 61 61 61 61 61 61 60 60 60 60 60 60 62 61 62 63 64 63 63 63 62 61 60
78 78 74 71 67 64 65 63 64 62 62 62 62 62 63 62 62 62 61 61 62 61 62 62 61 62 62 61 62 61 61 60
79 78 75 73 70 68 66 67 66 64 64 63 63 64 64 63 63 62 63 63 64 62 62 62 62 63 63 62 62 62 61 60
79 79 77 76 72 70 67 67 68 65 66 65 64 64 65 64 63 63 64 65 65 64 63 63 64 64 64 62 62 62 62 62
80 80 77 76 72 71 69 68 69 67 67 66 66 65 65 65 64 64 65 65 65 65 65 65 65 65 64 63 62 64 62 61
81 80 77 76 73 72 70 69 70 70 69 66 65 65 66 64 64 65 66 65 65 66 66 65 65 65 65 64 64 63 63 63
79 79 78 77 75 73 72 70 71 71 69 67 65 65 65 66 65 65 65 66 65 65 65 65 65 65 66 66 66 64 64 63
78 78 78 78 76 74 74 71 71 71 70 68 67 66 67 67 66 66 66 66 66 66 66 66 66 66 59 52 59 60 52 46
78 81 80 79 77 75 74 72 69 70 69 68 69 68 68 66 66 66 65 65 66 65 63 54 48 45 39 41 47 44 43 41
76 79 80 79 78 77 74 74 71 69 69 70 69 69 68 66 67 66 64 59 50 45 42 41 38 38 37 38 39 38 36 36
76 77 77 79 80 78 76 76 72 70 69 71 71 69 68 68 61 47 44 42 39 38 37 37 36 35 36 36 35 35 33 33

GFSFLT1_sfc_temp_105.txt.gz
Temp
72 70 67 64 62 61 61 61 61 61 60 62 62 64 64 64 64 65 64 65 66 64 65 65 65 66 65 62 65 63 62 61
71 69 65 61 60 60 60 62 62 59 58 57 57 60 63 64 64 63 64 64 65 64 66 65 65 66 64 64 65 63 59 59
69 64 63 60 59 59 62 62 61 59 58 59 59 58 59 64 64 64 64 64 64 63 66 65 66 64 62 63 64 60 59 58
66 64 60 58 57 59 62 62 60 58 61 60 58 58 59 60 62 62 63 64 63 63 64 64 65 63 63 61 63 60 58 57
67 63 58 58 57 60 64 63 61 61 61 60 59 59 57 60 61 62 62 63 63 62 64 64 64 64 62 61 63 61 60 58
66 64 60 60 59 60 64 62 61 62 61 60 58 58 58 60 62 61 61 62 63 62 63 63 62 63 63 63 60 60 60 58
67 66 62 60 59 59 63 61 61 61 60 60 59 58 58 58 60 59 60 61 60 61 61 61 60 61 61 60 60 60 58 58
66 64 62 59 57 59 62 61 60 60 60 59 58 58 60 58 58 59 58 58 58 59 60 60 59 59 60 60 59 59 59 58
66 65 63 59 59 58 61 60 60 60 60 59 58 58 58 60 58 59 59 59 59 59 59 60 59 59 59 59 59 59 59 59
66 66 64 59 59 59 59 59 61 60 61 59 57 58 58 59 60 60 60 60 60 58 58 59 59 59 60 60 60 59 60 59
68 66 64 61 60 60 59 60 62 61 60 60 59 59 61 61 60 60 60 60 61 59 59 60 60 60 61 61 61 61 60 60
69 68 66 63 62 60 60 59 60 60 60 59 59 59 60 60 61 60 60 60 61 60 61 61 61 60 61 61 61 61 59 59
71 69 66 63 62 61 61 60 60 60 63 62 59 60 60 59 59 60 61 61 61 61 62 61 61 62 61 60 58 61 59 58
72 69 67 64 64 62 62 62 62 62 63 63 62 61 60 59 59 60 60 61 61 62 61 61 61 61 61 60 60 60 59 59
65 67 69 66 66 64 64 63 64 63 62 61 62 60 60 61 60 60 60 61 61 61 62 61 61 62 62 62 62 61 60 51
70 64 64 68 67 65 65 65 64 64 62 61 60 60 59 60 59 59 61 61 61 62 60 62 62 60 54 55 58 54 47 42
72 69 65 67 68 66 66 65 65 65 63 62 62 61 62 60 60 59 58 59 61 57 48 48 44 43 39 42 45 43 41 39
68 71 73 63 68 70 67 66 67 65 63 64 63 62 62 61 61 61 60 50 45 42 40 39 37 37 38 38 38 38 36 36
59 63 63 69 72 69 68 67 66 64 63 64 64 63 63 61 54 46 43 41 39 37 36 36 35 35 36 36 36 35 33 33

GFSFLT1_sfc_temp_108.txt.gz
Temp
71 67 65 63 62 61 60 60 61 61 60 62 63 61 62 63 64 64 65 65 66 64 62 63 62 63 61 61 62 60 61 58
67 64 63 60 60 60 59 58 59 59 57 59 61 61 62 62 64 65 65 65 65 64 64 64 63 65 61 62 62 61 56 58
63 61 61 60 59 59 58 59 59 58 58 57 60 60 63 63 63 65 65 64 65 65 65 65 64 63 63 62 62 58 58 58
61 60 58 58 58 58 59 59 61 60 58 58 57 58 60 61 61 62 63 64 65 65 66 66 66 64 62 63 63 63 61 56
64 61 57 57 57 58 59 60 61 60 59 58 58 55 58 59 62 63 63 63 64 65 65 66 66 65 64 63 64 61 62 60
64 61 60 58 57 57 59 59 60 61 60 60 59 58 58 58 60 61 63 62 63 63 63 63 64 63 63 63 60 60 58 58
66 64 59 57 57 57 58 59 60 60 60 60 59 58 59 58 60 60 60 61 61 61 62 62 63 62 61 59 58 59 57 58
63 57 57 56 56 56 58 59 58 60 60 59 59 59 59 59 60 60 61 60 60 58 60 59 60 61 60 60 59 58 58 57
63 60 59 57 57 57 58 58 58 60 59 59 59 57 59 59 60 60 60 60 60 59 60 60 60 60 60 59 58 57 57 57
62 61 59 58 57 57 57 58 58 60 60 59 59 58 57 59 59 60 59 60 60 59 59 59 59 59 59 58 58 57 57 57
64 63 59 59 58 58 57 59 58 60 60 59 59 57 57 57 58 58 59 59 59 58 59 59 58 58 58 58 57 58 57 58
64 64 61 59 59 58 57 57 58 60 61 59 58 57 58 58 59 59 58 59 58 58 58 57 58 58 58 58 58 59 58 59
62 64 61 58 58 57 57 58 58 59 61 60 59 57 58 59 59 59 58 58 59 59 59 57 58 59 58 59 59 60 58 58
63 62 62 59 58 58 58 58 58 59 59 59 59 57 56 57 58 58 58 58 58 59 59 59 59 59 59 59 59 59 57 58
63 60 61 59 59 59 58 58 59 59 60 60 57 56 56 57 57 58 58 58 58 58 59 60 60 59 60 59 58 56 56 50
63 62 60 60 59 59 60 60 59 60 60 61 59 58 57 57 56 57 57 58 59 59 58 59 59 60 58 58 58 56 45 40
57 63 61 63 62 60 60 60 60 60 59 59 60 59 59 57 57 56 56 56 57 54 51 47 43 43 39 42 45 43 41 38
55 55 56 54 64 64 61 60 61 60 59 60 59 59 58 57 57 57 54 47 45 42 40 39 37 38 38 39 38 38 36 35
52 52 51 52 51 63 63 61 60 60 60 60 60 59 59 58 53 46 43 41 39 37 36 36 35 35 36 36 35 34 33 32

GFSFLT1_sfc_temp_111.txt.gz
Temp
67 66 65 62 62 61 61 61 60 59 62 62 62 60 62 62 62 62 63 64 64 63 61 59 60 59 58 57 58 56 56 59
66 61 60 59 60 60 60 59 59 59 60 60 60 60 61 61 62 64 64 64 63 61 62 60 61 60 58 59 58 58 53 57
62 57 59 59 59 60 59 60 59 58 59 59 61 61 61 62 63 64 65 64 63 62 62 61 61 60 57 59 61 54 55 57
60 57 57 59 58 59 59 59 59 57 57 57 58 60 61 60 61 62 63 64 64 64 62 62 62 62 60 60 61 61 57 54
63 59 56 57 59 59 58 59 58 57 57 56 58 59 59 61 61 62 63 64 64 64 63 63 63 62 62 62 62 62 58 57
61 60 59 58 58 57 58 58 58 60 58 57 56 55 57 59 61 61 62 62 64 64 64 64 63 63 62 62 61 58 60 60
62 63 60 57 56 56 57 57 60 61 60 57 57 55 55 56 58 59 61 62 63 63 64 63 63 63 62 62 60 59 57 57
63 61 57 56 55 56 57 57 59 60 60 59 57 58 59 57 57 58 59 61 61 62 62 62 62 62 61 60 59 58 58 57
64 62 58 56 56 56 57 57 59 60 60 59 60 59 59 60 60 60 61 61 61 60 61 62 62 61 60 60 59 58 57 57
63 61 58 57 56 56 57 57 59 59 60 58 59 59 59 59 60 61 61 62 61 60 60 60 60 60 60 59 58 57 57 57
61 60 58 57 58 57 57 57 58 57 60 59 58 58 58 58 59 59 59 59 60 59 59 60 60 59 59 59 58 57 57 56
59 62 59 58 57 57 57 56 56 56 59 59 57 58 57 57 57 59 59 59 59 59 59 59 58 58 59 58 58 57 56 56
60 61 57 56 56 57 57 56 56 57 58 59 57 57 58 57 57 57 58 58 58 58 58 58 58 58 57 57 57 57 56 55
58 61 57 57 57 57 58 56 56 57 58 59 58 58 58 57 57 57 57 58 58 58 58 57 57 57 57 57 57 58 57 57
58 58 57 57 57 57 58 58 56 57 57 60 58 57 57 57 57 57 55 57 57 58 58 58 58 58 58 58 58 56 53 47
56 55 56 57 57 58 58 58 56 56 56 57 58 58 57 56 56 56 57 56 56 57 57 57 57 57 56 55 55 52 44 40
55 55 55 55 56 58 58 58 57 56 56 57 58 57 55 55 55 55 56 57 55 55 52 50 47 45 40 44 47 44 41 38
52 51 52 52 52 55 59 59 59 57 57 56 58 56 55 54 55 54 54 49 47 43 42 41 39 39 39 40 39 39 37 35
50 49 49 50 50 52 58 61 59 58 57 57 57 56 55 55 53 47 43 42 40 38 37 37 36 36 37 37 35 34 33 33

GFSFLT1_sfc_temp_114.txt.gz
Temp
65 64 64 62 60 61 61 62 61 60 59 61 61 60 60 61 62 62 62 63 63 64 62 59 60 58 57 59 58 55 55 56
62 62 59 57 59 59 60 60 59 60 61 60 60 59 60 62 62 62 62 63 63 62 60 59 59 59 58 58 59 57 52 55
66 60 56 57 59 60 60 60 59 61 62 62 61 61 61 62 62 62 62 62 61 61 60 60 59 58 57 57 59 55 53 57
63 61 55 55 57 59 60 60 60 60 62 62 60 60 60 60 61 61 62 62 61 61 61 60 59 59 57 58 59 60 55 53
62 59 54 55 57 57 59 59 60 58 58 61 60 60 59 60 60 62 62 62 61 60 61 61 60 59 58 58 60 60 57 55
59 61 57 56 57 56 58 60 60 58 58 59 60 59 60 61 61 61 62 63 62 61 60 60 60 59 58 59 58 57 57 59
59 63 59 55 56 56 59 59 59 58 57 55 56 55 58 59 60 60 61 62 62 62 61 60 60 59 58 58 59 57 56 59
56 58 59 56 57 57 58 59 58 58 57 57 55 55 58 59 60 61 60 61 61 61 62 60 60 60 60 60 59 57 56 57
56 58 61 57 58 57 58 58 58 57 58 57 57 56 56 56 57 59 60 61 62 62 63 62 62 62 61 60 59 59 57 56
55 58 60 55 57 58 58 59 60 57 57 59 59 59 59 58 57 57 58 60 61 61 63 62 62 62 60 60 59 57 57 57
56 58 60 61 57 59 57 59 60 58 58 60 59 59 59 59 58 59 58 60 61 61 61 61 61 61 61 60 58 58 58 57
54 57 59 61 58 58 57 57 59 59 59 60 58 58 58 58 58 59 59 59 60 60 60 60 60 60 60 59 59 59 58 57
54 56 59 55 56 57 57 57 58 58 57 59 58 58 58 57 57 58 58 58 59 59 59 59 59 59 59 59 58 58 57 56
53 56 56 55 56 57 57 57 57 58 55 59 57 57 57 57 57 57 57 57 57 58 58 58 58 58 59 59 58 57 57 57
52 54 54 56 57 57 57 57 58 57 56 58 57 57 57 57 57 57 57 57 57 57 58 57 57 57 57 57 57 56 52 48
51 52 52 53 55 57 57 57 57 57 55 57 57 57 57 57 56 56 56 57 57 57 57 57 57 57 56 56 55 48 42 39
52 52 52 51 52 52 57 57 56 56 55 56 58 56 56 56 55 56 56 56 56 56 53 52 49 47 43 45 47 43 41 38
50 50 49 49 49 50 51 57 57 55 56 58 57 56 55 55 55 55 54 50 48 45 44 45 42 42 41 41 40 40 38 36
48 47 47 47 47 48 49 53 57 56 55 57 57 56 55 55 54 47 44 43 41 39 38 38 37 37 38 38 37 36 35 34

GFSFLT1_sfc_temp_117.txt.gz
Temp
76 76 75 75 72 72 70 69 68 68 67 65 64 63 62 63 63 64 64 65 65 65 64 62 61 60 63 66 67 69 69 68
73 71 72 71 69 69 68 67 67 66 63 61 61 60 61 61 63 65 66 65 64 63 63 61 61 59 64 67 67 65 66 68
70 70 69 68 68 67 67 67 65 67 67 65 65 63 62 63 65 65 64 64 63 63 62 61 60 60 61 63 66 66 66 66
67 67 68 67 66 65 66 67 64 67 68 67 67 63 62 62 62 62 62 62 63 61 61 61 60 60 60 64 66 66 63 65
66 65 66 67 66 67 67 65 65 65 67 67 65 62 60 62 62 62 62 62 61 61 61 59 59 61 60 65 65 65 64 62
63 64 65 68 66 65 66 65 64 63 63 65 66 61 62 65 64 62 63 63 61 61 59 58 57 60 63 63 65 66 68 67
64 65 67 68 63 63 63 63 62 61 62 64 65 62 61 62 63 61 63 62 61 61 59 58 57 59 60 63 63 65 65 67
62 63 64 65 64 60 62 61 60 60 61 62 63 63 65 65 63 63 60 62 62 60 61 58 58 59 60 61 63 63 64 65
62 63 63 65 65 63 60 60 60 60 61 62 64 66 65 65 64 63 63 61 62 63 62 62 60 60 60 61 63 63 64 63
60 62 63 64 64 65 59 60 61 60 61 62 63 64 62 62 61 62 63 63 64 62 62 62 62 60 61 62 63 62 63 62
60 61 62 63 64 65 62 60 60 60 62 64 65 65 65 63 63 63 63 62 62 61 62 61 61 61 61 60 61 62 61 60
59 61 63 63 63 64 60 58 60 59 62 65 65 63 62 61 61 62 65 64 65 64 63 61 60 60 60 60 60 60 59 58
59 60 62 61 57 59 59 58 59 59 63 64 64 63 61 60 60 62 63 61 62 62 61 61 61 60 60 59 58 58 58 57
58 59 58 58 57 55 58 58 59 60 61 63 62 62 60 59 61 60 61 60 59 59 59 59 58 60 59 59 59 58 58 57
57 57 55 55 56 54 54 57 58 58 59 63 62 61 59 59 59 59 60 60 57 58 58 58 58 59 59 59 58 58 57 57
57 55 54 53 53 53 52 56 57 58 58 61 62 61 60 59 58 59 58 58 59 58 57 57 57 57 57 57 55 48 45 41
54 54 53 49 50 50 50 51 57 58 58 60 62 59 58 58 57 57 57 57 57 56 55 53 52 49 42 43 46 43 41 38
51 50 49 48 47 48 48 49 52 57 57 60 60 58 57 57 57 57 56 52 50 47 46 45 43 43 41 40 39 40 37 35
48 47 47 48 47 46 46 49 52 56 57 59 59 58 57 57 56 50 47 46 44 42 40 39 38 38 38 38 37 36 34 34

GFSFLT1_sfc_temp_120.txt.gz
Temp
85 85 85 85 83 83 81 82 81 79 78 76 74 71 69 70 69 73 74 69 67 67 66 65 65 63 62 64 66 75 76 77
83 83 82 81 81 81 80 79 78 78 73 70 66 65 65 66 69 70 68 70 67 65 64 64 63 62 62 64 67 73 74 74
79 80 80 79 79 78 78 78 77 78 73 71 70 68 68 69 66 69 67 69 68 66 65 63 62 61 61 64 67 72 74 75
75 76 77 78 78 77 78 79 77 75 77 71 72 70 68 64 64 64 66 71 71 67 65 62 62 61 60 61 66 67 70 72
74 75 76 76 76 76 77 78 75 69 72 69 71 69 68 70 69 67 69 71 69 66 64 63 61 62 61 61 65 69 73 70
73 75 76 77 75 73 75 75 68 68 69 73 73 74 75 73 65 66 67 64 65 67 63 60 61 61 62 62 63 70 73 72
73 76 76 76 75 72 69 69 67 66 67 71 73 74 73 70 66 68 67 62 61 62 60 59 59 59 60 61 63 68 71 73
71 72 73 73 72 73 70 64 64 63 63 69 71 71 72 69 69 68 67 62 60 59 60 58 58 58 59 61 63 69 70 72
70 71 71 72 71 73 73 70 63 63 62 64 68 71 70 68 70 70 66 64 62 62 60 60 57 57 58 60 63 68 70 71
70 71 71 71 70 69 72 72 68 64 61 63 65 67 72 71 71 70 69 66 64 64 63 60 59 57 57 60 63 65 67 69
69 70 71 72 71 69 64 70 67 65 63 62 67 69 73 72 70 70 69 65 64 62 61 61 61 60 59 59 61 64 65 65
68 69 71 72 71 69 64 62 63 63 63 62 66 68 70 70 66 66 67 65 63 61 62 61 60 60 61 60 58 61 65 66
68 69 69 70 68 67 65 56 60 61 62 62 64 67 71 70 68 69 68 67 69 68 65 62 60 59 60 60 60 62 66 66
68 69 67 66 65 65 63 57 55 60 62 62 62 66 69 67 68 68 64 63 64 63 63 62 61 61 59 59 60 60 60 61
67 67 67 66 64 62 61 53 53 59 60 60 61 65 67 68 69 65 63 63 63 60 61 61 60 59 60 60 59 58 58 58
65 65 65 64 60 59 56 51 52 55 58 59 61 65 67 68 67 63 63 63 61 61 61 60 57 58 58 58 58 57 55 49
62 62 61 58 57 53 50 50 50 51 57 58 64 65 65 66 65 62 61 60 59 59 59 55 51 47 41 43 46 44 41 39
58 58 57 56 56 52 47 47 49 50 54 58 63 66 65 65 64 62 58 56 53 48 47 46 43 42 39 40 40 40 38 37
56 56 55 55 55 54 47 47 48 49 51 57 61 64 64 65 62 58 52 50 47 43 40 40 39 38 37 37 36 35 34 34

GFSFLT1_sfc_temp_123.txt.gz
Temp
88 88 88 87 84 84 85 86 86 86 84 83 83 77 74 71 75 81 77 75 74 72 69 68 70 66 64 63 62 66 77 76
88 87 86 85 85 84 84 83 83 83 83 81 80 76 71 69 71 78 75 72 73 69 69 67 65 63 63 63 62 63 71 73
84 84 83 83 82 83 83 83 83 83 84 83 80 75 67 68 70 74 76 74 70 70 69 65 65 63 62 62 62 62 67 70
80 80 81 80 80 78 81 83 84 82 83 81 71 69 67 64 67 70 74 73 73 70 67 65 63 63 61 61 62 62 64 68
79 79 80 80 79 78 80 82 83 82 81 77 68 66 65 65 67 69 72 73 73 73 71 66 63 63 62 62 62 62 65 66
76 78 79 81 79 78 76 79 80 78 76 76 70 66 72 72 73 69 69 71 73 73 70 66 62 62 62 62 61 62 65 66
76 78 79 80 77 76 77 74 74 70 69 70 68 67 72 72 72 69 70 69 70 71 70 65 64 62 61 61 62 61 63 67
74 75 76 77 76 75 76 78 72 70 68 69 67 69 69 73 71 70 68 64 64 66 65 62 61 62 61 61 61 61 63 66
73 74 75 76 75 74 73 77 76 70 69 67 65 68 70 76 74 71 71 67 64 64 62 61 61 60 59 61 61 61 62 62
73 74 74 75 76 74 71 72 76 70 67 68 64 65 69 74 75 70 73 69 67 64 62 60 59 58 59 59 59 60 61 62
72 74 74 75 75 74 72 70 72 72 69 67 63 63 67 71 73 71 71 72 67 63 62 60 58 58 58 58 59 60 60 61
72 72 74 75 74 73 70 69 67 67 68 66 64 63 65 68 70 70 71 70 70 66 62 60 58 57 58 58 58 59 60 62
73 72 73 73 71 71 70 66 66 64 65 65 65 62 64 66 68 71 72 70 70 65 62 61 59 58 57 57 57 58 59 61
72 73 73 72 71 68 67 67 65 65 63 62 63 62 63 65 66 69 67 68 70 67 66 64 61 59 58 58 58 58 58 60
71 72 72 72 70 66 65 62 63 61 57 60 61 62 63 64 68 67 65 68 69 69 68 68 66 61 60 59 58 58 58 59
69 70 70 68 67 65 64 60 61 59 54 54 60 61 62 64 65 64 65 66 67 65 63 62 62 61 61 60 59 58 58 59
68 67 65 63 63 62 62 58 54 56 52 52 58 60 61 63 63 63 63 64 64 62 61 57 53 50 41 44 52 54 50 43
63 61 61 61 60 60 57 56 55 51 51 53 54 60 61 65 63 63 62 61 58 52 49 48 45 43 40 40 40 40 38 37
60 60 60 60 59 55 51 53 53 50 49 50 53 59 62 66 62 60 56 54 48 44 42 42 40 39 38 37 37 36 34 33

GFSFLT1_sfc_temp_126.txt.gz
Temp
85 86 84 82 78 79 77 76 76 76 75 75 73 73 72 73 73 74 73 72 72 71 70 69 68 65 64 63 62 62 63 62
85 84 82 81 80 79 78 76 75 74 73 73 73 70 71 71 72 72 73 72 72 71 68 67 68 65 64 64 63 61 61 63
83 81 79 78 78 78 77 77 76 76 76 73 74 74 72 71 70 71 71 72 72 70 67 66 67 64 64 63 63 61 61 61
80 78 76 76 75 75 77 77 77 75 75 75 72 69 67 64 66 67 70 70 69 69 68 65 65 64 62 63 62 62 59 60
78 77 76 75 72 74 75 75 77 78 75 74 68 65 64 65 66 66 68 70 68 68 68 66 64 64 62 63 63 62 62 59
75 75 76 77 73 73 73 73 73 75 74 72 70 66 67 66 66 64 65 68 68 68 67 66 64 64 63 62 62 62 62 61
74 75 75 75 71 71 71 72 71 69 68 67 69 67 66 65 65 64 65 66 67 68 68 66 64 63 62 62 62 62 61 61
70 72 72 72 71 70 69 70 72 69 67 66 66 67 67 67 67 66 65 65 66 66 66 65 63 62 62 62 61 61 61 60
71 72 72 72 72 70 68 68 69 69 67 65 65 65 66 67 65 67 67 66 65 64 64 63 63 62 62 61 61 61 61 61
71 72 71 71 70 69 67 68 68 69 68 65 66 64 65 65 67 68 68 66 65 64 62 61 61 61 61 60 60 60 60 60
70 71 71 71 71 70 67 67 66 66 66 66 66 65 64 65 65 66 67 65 64 63 61 60 59 59 59 59 60 60 59 59
68 69 71 71 70 69 66 65 64 64 64 63 64 64 63 63 64 66 68 66 65 63 61 59 59 58 58 58 58 59 59 59
68 69 71 70 70 69 66 64 63 61 63 62 62 63 63 63 63 64 64 66 65 63 62 60 58 58 57 57 57 59 59 59
68 69 69 70 70 65 65 62 60 61 60 59 59 62 62 61 63 63 65 65 65 64 62 59 58 57 57 57 58 59 59 59
67 67 68 66 65 64 63 61 59 59 58 57 56 59 61 62 62 63 63 64 64 65 63 61 60 58 57 57 58 58 58 59
66 67 64 63 62 61 61 60 59 57 54 55 55 56 61 61 61 62 62 62 63 64 63 63 62 59 58 57 57 57 57 57
66 64 62 61 60 59 59 56 54 55 54 53 55 54 58 60 60 60 61 61 61 61 60 57 53 51 41 46 53 57 56 56
60 58 58 57 57 56 52 51 53 52 52 52 52 51 54 59 60 60 59 59 56 51 49 48 44 42 40 41 40 42 40 40
55 55 56 56 55 51 49 50 50 49 49 50 49 47 50 57 59 59 56 52 48 45 43 42 39 38 38 38 37 36 34 34

GFSFLT1_sfc_temp_129.txt.gz
Temp
74 75 75 70 69 70 70 69 69 67 69 69 68 67 69 67 67 71 70 71 69 69 67 67 65 63 63 63 62 62 62 62
75 74 71 69 69 70 70 69 66 66 64 66 66 66 66 67 69 69 70 70 69 68 67 66 65 63 64 63 62 61 61 62
75 69 68 67 67 67 68 68 68 67 65 64 65 68 67 69 68 67 67 69 69 67 67 66 66 64 63 62 62 61 60 62
71 70 65 66 64 66 68 67 67 67 67 65 63 63 63 64 67 67 69 67 69 69 67 66 66 65 63 63 62 62 60 60
72 67 65 62 63 67 68 68 67 68 67 65 64 61 60 62 65 67 67 67 67 68 67 66 66 64 63 63 63 62 62 59
66 64 66 65 66 66 66 67 67 65 65 64 62 61 61 61 62 64 66 65 67 66 66 64 64 64 64 63 62 62 62 62
67 67 66 64 64 64 65 64 64 64 64 63 61 62 61 61 61 63 64 65 65 65 65 64 64 63 62 62 62 62 61 61
62 64 65 63 62 62 65 63 63 63 63 62 62 63 63 63 63 62 63 63 64 64 64 64 63 63 63 63 63 62 62 60
63 64 65 64 62 61 63 63 62 64 62 61 62 62 62 64 64 63 65 64 64 65 65 65 64 63 63 62 62 62 62 61
61 64 64 64 61 60 61 60 61 60 60 63 63 63 63 64 64 64 65 65 64 63 63 63 63 62 62 62 61 60 61 61
63 62 63 62 61 60 59 60 59 58 58 59 62 62 62 63 63 63 64 64 64 62 60 61 60 60 60 60 60 61 60 60
62 62 64 63 62 60 58 57 57 55 55 56 56 59 62 61 62 62 63 64 63 62 61 59 59 58 59 59 59 60 59 59
63 62 62 63 59 58 56 56 56 55 55 54 55 56 59 61 61 62 63 63 63 62 60 58 59 58 58 58 58 58 58 58
62 62 59 59 58 59 57 55 55 54 53 52 53 54 56 59 61 62 62 62 62 62 60 58 58 58 57 57 58 58 58 59
59 58 57 56 57 57 56 54 53 53 51 51 51 53 54 55 59 61 62 62 62 61 61 60 59 58 58 57 57 58 58 58
59 56 54 55 54 54 53 51 51 51 51 51 51 52 53 54 56 60 62 62 62 62 61 60 59 58 58 57 57 57 57 57
54 54 54 53 51 49 48 47 47 49 49 49 51 51 50 50 53 57 60 61 60 59 60 60 59 57 47 46 52 56 56 55
48 48 49 48 46 46 43 44 46 47 47 47 48 48 46 46 49 50 59 59 58 54 53 51 48 46 40 43 44 52 52 51
46 46 46 45 44 42 42 43 44 44 45 43 42 42 43 44 46 48 55 55 53 49 45 43 40 39 39 39 38 37 35 34

GFSFLT1_sfc_temp_132.txt.gz
Temp
74 79 75 68 65 65 67 71 71 70 68 68 67 66 67 66 68 69 69 70 69 68 67 66 65 64 64 63 62 62 63 61
75 74 68 65 63 65 65 64 65 65 64 65 64 65 65 65 65 69 68 70 69 68 66 65 65 65 64 63 61 60 59 61
71 67 64 64 64 66 65 65 65 64 63 65 65 65 65 67 67 65 67 68 68 67 66 65 65 64 63 62 62 60 59 61
67 66 62 59 60 63 65 64 64 65 66 63 61 63 63 64 64 65 65 66 67 67 66 65 65 65 63 62 62 62 59 61
69 65 57 60 60 63 65 66 65 64 63 61 61 62 64 65 66 67 66 65 66 66 66 66 65 65 63 63 63 63 62 59
65 61 62 60 60 61 63 65 65 63 62 62 61 60 59 60 63 65 65 65 68 67 66 65 65 65 64 63 62 62 62 61
63 64 63 60 59 60 62 64 63 62 62 61 60 61 61 59 61 63 63 63 65 67 66 66 65 65 63 63 63 62 61 61
62 61 61 59 59 61 63 63 61 61 60 60 60 60 61 61 60 62 61 61 62 64 65 64 64 64 63 63 63 62 61 61
62 61 60 60 60 61 61 61 59 60 58 58 59 60 60 61 62 61 63 63 63 65 65 64 64 63 63 63 62 62 62 61
60 60 60 60 59 59 59 59 57 57 57 56 57 57 60 60 62 62 63 64 64 64 64 64 63 63 62 62 62 61 62 61
57 59 59 60 60 59 58 58 56 55 56 55 55 55 57 59 61 62 61 63 63 63 63 63 63 62 62 62 62 62 61 61
51 59 60 60 56 56 56 56 55 53 53 54 53 53 54 56 59 60 61 63 62 62 62 62 61 61 61 61 61 60 60 60
50 56 57 56 55 55 55 54 54 53 52 52 52 53 53 53 55 59 62 62 63 62 61 60 59 59 59 59 59 59 59 59
56 54 55 54 54 54 52 52 50 50 50 49 50 51 51 51 52 55 58 61 62 62 61 60 59 58 58 58 58 59 58 59
53 52 51 50 50 50 49 49 48 48 49 48 48 49 49 49 50 52 55 59 61 61 61 60 59 57 58 58 58 58 58 58
48 48 47 46 46 45 45 45 45 47 47 46 46 47 48 47 47 48 51 53 60 62 60 60 59 58 57 57 57 57 57 57
47 47 46 45 44 42 43 42 43 45 45 45 45 44 44 44 45 45 48 51 55 61 60 59 58 57 48 46 53 56 56 55
44 44 43 43 41 41 38 40 41 41 43 42 42 41 41 41 43 44 44 47 49 57 58 59 57 55 45 45 45 54 53 53
43 43 42 40 39 38 39 39 38 39 39 38 39 39 39 40 41 42 42 44 46 54 53 51 49 42 40 42 41 42 39 36